Погода в Рабате

Мальта     35°52′51″N   14°24′03″E
темп.,
°C
ветер,
м/с
пор.,
м/с
влажн.,
%
обл.,
%
осадки,
мм/ч
давл.,
гПа
погр.,
м
10 мая, пн
пн1023:00+18юв45725 0.0 101972
02:00+18юв45735 0.0 101886
05:00+18юв457842 0.0 101892
08:00+19вюв56775 0.0 1018162
11:00+19вюв67750 0.0 1018248
14:00+20юв78760 0.0 1017286
17:00+19юв78820 0.0 1016285
20:00+19юв68880 0.0 1016241
11 мая, вт
вт1123:00+18вюв610882 0.0 1015269
02:00+18юв7119091 0.0 1014331
05:00+18юв69902 0.0 1013309
08:00+19вюв710860 0.0 1014307
11:00+19вюв711825 0.0 1014336
14:00+20юв7108022 0.0 1013330
17:00+19вюв458179 0.0 1013167
20:00+19юз11850 0.0 101316
12 мая, ср
ср1223:00+18сз6991100 0.0 1014301
02:00+18сз81279100 0.0 1013414
05:00+17сз111578100 0.0 1013644
08:00+17сз1315813 0.0 1014728
11:00+18сз1214770 0.0 1015830
14:00+18зсз1214720 0.0 1014801
17:00+18зсз1214760 0.0 1013633
20:00+17зсз1115800 0.0 1014584
13 мая, чт
чт1323:00+18сз1114795 0.0 1014579
02:00+17сз811765 0.0 1014560
05:00+17зсз710765 0.0 1014527
08:00+18зсз811754 0.0 1015638
11:00+19зсз8117193 0.0 1015641
14:00+19зсз9126884 0.0 1015592
17:00+19зсз811680 0.0 1014505
20:00+18з58740 0.0 1015245
14 мая, пт
пт1423:00+18з46742 0.0 1015175
02:00+18зюз457182 0.0 1015112
05:00+18з346735 0.0 101566
08:00+19юз34655 0.0 1016101
11:00+21ююз45540 0.0 1016143
14:00+22ю45535 0.0 1016139
17:00+21ююв67625 0.0 1015175
20:00+20юв5775100 0.0 1015134